#timestamp,LO_Frequency,Hit,StdDev 
1553742015.7,286046996.6,N
1553742035.6,286046998.5,N
1553742055.4,286046998.6,N
1553742075.2,286047000.9,N
1553742095.1,286047001.7,N
1553742115.9,286047000.4,N
1553742135.7,286047002.3,N
1553742155.5,286047002.1,N
1553742175.4,286047002.2,N
1553742195.2,286047002.6,N
1553742215.1,286047001.2,N
1553742216.0,286047001.2,N
1553742235.8,286046998.1,N
1553742255.6,286046998.3,N
1553742275.5,286046999.0,N
1553742295.3,286046997.0,N
1553742315.1,286046999.0,N
1553742335.9,286047000.7,N
1553742355.7,286046998.4,N
1553742375.6,286047000.8,N
1553742395.4,286047000.3,N
1553742415.2,286047002.6,N
1553742435.1,286047003.9,N
1553742436.0,286047003.9,N
1553742455.8,286047001.2,N
1553742475.6,286046999.1,N
1553742495.5,286046999.4,N
1553742515.3,286046997.0,N
1553742535.2,286046999.4,N
1553742555.9,286047000.7,N
1553742575.7,286047001.6,N
1553742595.6,286047001.7,N
1553742615.4,286047004.2,N
1553742635.2,286047003.3,N
1553742655.1,286047004.3,N
1553742656.0,286047004.3,N
1553742675.8,286047001.9,N
1553742695.7,286047000.9,N
1553742715.5,286047001.2,N
1553742735.3,286047000.4,N
1553742755.8,286046998.3,N
1553742775.6,286047000.5,N
1553742795.4,286046999.9,N
1553742815.3,286046999.9,N
1553742835.1,286047002.8,N
1553742855.9,286046998.4,N
1553742875.9,286046998.1,N
1553742895.7,286047000.6,N
1553742915.5,286047000.1,N
1553742935.7,286047002.5,N
1553742955.5,286047004.3,N
1553742975.3,286047003.7,N
1553742995.2,286047004.4,N
1553743015.9,286047004.0,N
1553743035.7,286047002.0,N
1553743055.6,286047000.1,N
1553743075.4,286046998.8,N
1553743095.3,286046996.5,N
1553743115.1,286046999.6,N
1553743116.0,286046999.6,N
1553743135.8,286046999.0,N
1553743155.7,286046998.6,N
1553743175.5,286046996.5,N
1553743195.3,286046997.5,N
1553743215.2,286046997.6,N
1553743235.0,286046998.0,N
1553743235.9,286046998.0,N
1553743255.8,286046997.6,N
1553743275.6,286046997.3,N
1553743295.4,286046995.4,N
1553743315.3,286046995.9,N
1553743335.1,286046997.9,N
1553743355.8,286046997.1,N
1553743375.7,286047011.9,Y
1553743395.5,286046997.7,P
1553743445.4,286046998.5,E
1553743455.3,286047000.4,N
1553743475.1,286047011.9,P
1553743495.9,286047002.5,N
1553743515.7,286047002.4,N
1553743535.6,286046998.5,N
1553743555.4,286047000.0,N
1553743575.2,286047000.3,N
1553743595.1,286047002.6,N
1553743596.0,286047002.6,N
1553743615.8,286047000.1,N
1553743635.6,286047002.3,N
1553743655.5,286047001.7,N
1553743675.3,286047001.8,N
1553743695.2,286047003.7,N
1553743715.9,286047005.3,N
1553743735.7,286047004.4,N
1553743755.6,286047001.3,N
1553743775.4,286047004.2,N
1553743795.2,286047001.5,N
1553743815.1,286047002.4,N
1553743816.0,286047002.4,N
1553743835.8,286046999.7,N
1553743855.7,286046999.8,N
1553743875.5,286047002.5,N
1553743895.3,286047001.8,N
1553743915.2,286047000.2,N
1553743935.0,286046999.7,N
1553743935.9,286046999.7,N
1553743955.7,286047002.6,N
1553743975.6,286047001.5,N
1553743995.4,286047000.6,N
1553744015.3,286047001.1,N
1553744035.1,286046998.3,N
1553744036.0,286046998.3,N
1553744055.8,286047000.3,N
1553744075.7,286047000.4,N
1553744095.5,286047001.5,N
1553744115.3,286047002.1,N
1553744135.2,286047001.3,N
1553744155.0,286047003.7,N
1553744155.9,286047003.7,N
1553744175.8,286047004.1,N
1553744195.6,286047005.9,Y
1553744215.4,286047001.7,P
1553744235.3,286047005.3,P
1553744255.1,286047005.4,P
1553744275.8,286047003.7,N
1553744295.7,286047004.3,N
1553744315.5,286047001.7,N
1553744335.4,286047004.0,N
1553744355.2,286047004.2,N
1553744375.0,286047004.4,Y
1553744375.9,286047004.4,P
1553744395.8,286046999.0,N
1553744415.6,286046998.7,N
1553744435.4,286046999.1,N
1553744455.3,286046999.2,N
1553744475.1,286046997.1,N
1553744495.9,286046996.0,N
1553744515.7,286046996.4,N
1553744535.5,286046997.9,N
1553744555.4,286046996.1,N
1553744575.2,286046993.8,N
1553744595.6,286046994.2,N
1553744615.4,286046993.3,N
1553744635.3,286046995.5,N
1553744655.1,286046996.0,N
1553744675.8,286046996.1,N
1553744695.7,286046999.5,N
1553744715.5,286046994.9,N
1553744735.4,286046995.6,N
1553744755.2,286046995.6,N
1553744775.0,286046996.0,N
1553744775.9,286046996.0,N
1553744795.8,286046997.6,N
1553744815.6,286046996.8,N
1553744835.5,286046998.1,N
1553744855.3,286046998.5,N
1553744875.1,286046999.4,N
1553744895.9,286046997.8,N
1553744915.7,286046998.9,N
1553744935.6,286047001.0,N
1553744955.4,286047000.9,N
1553744975.2,286047000.4,N
1553744995.1,286047000.6,N
1553744996.0,286047000.6,N
1553745015.8,286047001.0,N
1553745035.6,286046999.1,N
1553745055.5,286046996.7,N
1553745075.3,286046998.9,N
1553745095.2,286047000.7,N
1553745115.0,286046999.9,N
1553745115.9,286046999.9,N
1553745135.7,286047001.1,N
1553745155.6,286047000.2,N
1553745175.4,286046999.3,N
1553745195.3,286046996.6,N
1553745215.1,286046999.4,N
1553745235.8,286046998.7,N
1553745255.7,286046997.0,N
1553745275.5,286046998.8,N
1553745295.4,286046997.4,N
1553745315.2,286046997.9,N
1553745335.0,286046997.8,N
1553745336.0,286046997.8,N
1553745355.8,286046994.9,Y
1553745375.6,286046996.9,P
1553745395.5,286046996.6,P
1553745415.3,286046998.9,N
1553745435.1,286046996.6,Y
1553745455.9,286047002.7,P
1553745475.7,286046999.7,N
1553745495.6,286047003.9,N
1553745515.4,286047000.2,N
1553745535.2,286047001.8,N
1553745555.1,286047004.1,N
1553745556.0,286047004.1,N
1553745575.8,286047003.7,N
1553745595.6,286047003.4,N
